Location: Unspecified
(58.7730°N, 5.8460°E)
Time: 00:32:31
(UTC+02:00)

Cosmos 2058 - Visible Passes

Search period start: 29 July 2014 00:00
Search period end: 08 August 2014 00:00
Orbit: 572 x 593 km, 82.5° (Epoch: 28 July)

Date Brightness Start Highest point End Pass type
(mag) Time Alt. Az. Time Alt. Az. Time Alt. Az.
29 Jul 4.7 03:18:47 10° N 03:22:40 33° ENE 03:26:30 10° SE visible
30 Jul 6.3 01:50:11 10° NE 01:50:18 10° NE 01:50:26 10° NE visible
30 Jul 4.2 03:24:36 10° N 03:28:40 41° ENE 03:32:40 10° SE visible
31 Jul 5.9 01:54:43 10° NNE 01:56:27 12° NE 01:58:10 10° ENE visible
31 Jul 3.8 03:30:27 10° N 03:34:37 52° ENE 03:38:45 10° SSE visible
01 Aug 5.7 02:00:10 10° NNE 02:02:34 15° NE 02:04:58 10° E visible
01 Aug 3.3 03:36:19 10° N 03:40:34 68° ENE 03:44:45 10° SSE visible
02 Aug 5.6 02:05:46 10° NNE 02:08:40 18° NE 02:11:33 10° E visible
02 Aug 3.0 03:42:12 10° NNW 03:46:28 86° ENE 03:50:41 10° SSE visible
03 Aug 5.3 02:11:26 10° N 02:14:44 21° ENE 02:17:59 10° ESE visible
03 Aug 2.9 03:48:06 10° NNW 03:52:21 74° W 03:56:32 10° S visible
04 Aug 4.9 02:17:10 10° N 02:20:46 26° ENE 02:24:19 10° ESE visible
04 Aug 3.1 03:54:03 10° NNW 03:58:13 56° W 04:02:19 10° S visible
05 Aug 4.5 02:22:57 10° N 02:26:47 32° ENE 02:30:34 10° SE visible
05 Aug 3.4 04:00:01 10° NNW 04:04:02 43° W 04:08:01 10° SSW visible
06 Aug 4.1 02:28:44 10° N 02:32:45 40° ENE 02:36:43 10° SE visible
06 Aug 3.8 04:06:01 10° NNW 04:09:50 34° W 04:13:32 11° SSW visible
07 Aug 5.7 00:58:58 10° NNE 01:00:31 12° NE 01:02:04 10° ENE visible
07 Aug 3.7 02:34:34 10° N 02:38:43 50° ENE 02:42:37 11° SSE visible
07 Aug 4.1 04:12:03 10° NNW 04:15:37 27° W 04:18:59 11° SW visible
